Weather History for K19A - September, 2013

Change the Weather History Date:

Monday, September 2, 2013

  Actual Average (KGVL) Record (KGVL)
Temperature  
Mean Temperature 78 °F 76 °F  
Max Temperature 84 °F 85 °F - ()
Min Temperature 71 °F 67 °F - ()
Degree Days  
Heating Degree Days 0 0  
Month to date heating degree days 0  
Since 1 July heating degree days 0  
Cooling Degree Days 12 11  
Month to date cooling degree days 22  
Year to date cooling degree days 1348  
Growing Degree Days 28 (Base 50)    
Moisture  
Dew Point 68 °F    
Average Humidity 78    
Maximum Humidity 100    
Minimum Humidity 48    
Precipitation  
Precipitation 0.00 in 0.13 in - ()
Month to date precipitation 0.25  
Year to date precipitation 36.50  
Sea Level Pressure  
Sea Level Pressure 29.93 in    
Wind  
Wind Speed - (North)    
Max Wind Speed -    
Max Gust Speed -    
Visibility 9 miles    
Events      
T = Trace of Precipitation, MM = Missing Value Source: NWS Daily Summary

Daily Weather History Graph

Daily Weather History Graph

Search for Another Location

Airport or City:

Trip Planner

Search our weather history database for the weather conditions in past years. The results will help you decide how hot, cold, wet, or windy it might be!

Date:

Astronomy

Sep. 02, 2013 Rise Set
Actual Time 7:08 AM EDT 7:58 PM EDT
Civil Twilight 6:43 AM EDT 8:23 PM EDT
Nautical Twilight 6:12 AM EDT 8:54 PM EDT
Astronomical Twilight 5:41 AM EDT 9:24 PM EDT
Moon 4:29 AM EDT (9/2) 6:08 PM EDT (9/2)
Length of Visible Light 13h 40m
Length of Day
12h 49m
Waning Crescent, 8% of the Moon is Illuminated
Sep 2
Waning Crescent
Sep 5
New
Sep 12
First Quarter
Sep 19
Full
Sep 26
Last Quarter

Hourly Weather History & Observations

Time (EDT) Temp. Heat Index Dew Point Humidity Pressure Visibility Wind Dir Wind Speed Gust Speed Precip Events Conditions
12:15 AM 73.4 °F - 71.6 °F 94% 29.93 in 7.0 mi North - - N/A   Clear
12:35 AM 73.4 °F - 71.6 °F 94% 29.93 in 7.0 mi North - - N/A   Clear
12:55 AM 73.4 °F - 71.6 °F 94% 29.93 in 7.0 mi North - - N/A   Clear
1:15 AM 73.4 °F - 71.6 °F 94% 29.93 in 5.0 mi North - - N/A   Clear
1:35 AM 73.4 °F - 71.6 °F 94% 29.93 in 5.0 mi North - - N/A   Clear
1:55 AM 73.4 °F - 71.6 °F 94% 29.93 in 5.0 mi North - - N/A   Clear
2:15 AM 73.4 °F - 71.6 °F 94% 29.92 in 5.0 mi North - - N/A   Clear
2:35 AM 73.4 °F - 71.6 °F 94% 29.91 in 5.0 mi North - - N/A   Clear
2:55 AM 73.4 °F - 71.6 °F 94% 29.92 in 5.0 mi North - - N/A   Clear
3:15 AM 73.4 °F - 71.6 °F 94% 29.92 in 7.0 mi North - - N/A   Clear
3:35 AM 73.4 °F - 71.6 °F 94% 29.91 in 7.0 mi North - - N/A   Clear
3:55 AM 73.4 °F - 71.6 °F 94% 29.91 in 7.0 mi North - - N/A   Clear
4:15 AM 73.4 °F - 71.6 °F 94% 29.91 in 7.0 mi North - - N/A   Clear
4:35 AM 73.4 °F - 71.6 °F 94% 29.90 in 7.0 mi North - - N/A   Clear
4:55 AM 73.4 °F - 71.6 °F 94% 29.90 in 7.0 mi North - - N/A   Clear
5:15 AM 71.6 °F - 71.6 °F 100% 29.90 in 7.0 mi North - - N/A   Clear
5:35 AM 71.6 °F - 71.6 °F 100% 29.90 in 7.0 mi North - - N/A   Clear
5:55 AM 71.6 °F - 71.6 °F 100% 29.90 in 7.0 mi North - - N/A   Clear
6:15 AM 71.6 °F - 71.6 °F 100% 29.91 in 7.0 mi North - - N/A   Clear
6:35 AM 71.6 °F - 71.6 °F 100% 29.91 in 5.0 mi North - - N/A   Clear
6:55 AM 71.6 °F - 71.6 °F 100% 29.91 in 7.0 mi North - - N/A   Clear
7:15 AM 71.6 °F - 71.6 °F 100% 29.93 in 5.0 mi North - - N/A   Clear
7:35 AM 73.4 °F - 71.6 °F 94% 29.93 in 5.0 mi North - - N/A   Scattered Clouds
7:55 AM 73.4 °F - 71.6 °F 94% 29.94 in 7.0 mi North - - N/A   Scattered Clouds
8:15 AM 73.4 °F - 71.6 °F 94% 29.95 in 7.0 mi North - - N/A   Mostly Cloudy
8:35 AM 73.4 °F - 71.6 °F 94% 29.96 in 7.0 mi North - - N/A   Overcast
8:55 AM 73.4 °F - 71.6 °F 94% 29.96 in 7.0 mi North - - N/A   Scattered Clouds
9:15 AM 75.2 °F - 71.6 °F 89% 29.96 in 10.0 mi North - - N/A   Clear
9:35 AM 75.2 °F - 71.6 °F 89% 29.97 in 10.0 mi North - - N/A   Mostly Cloudy
9:55 AM 75.2 °F - 69.8 °F 83% 29.98 in 10.0 mi North - - N/A   Mostly Cloudy
10:15 AM 75.2 °F - 69.8 °F 83% 29.98 in 10.0 mi North - - N/A   Mostly Cloudy
10:35 AM 75.2 °F - 69.8 °F 83% 29.98 in 10.0 mi North - - N/A   Overcast
10:55 AM 75.2 °F - 69.8 °F 83% 29.99 in 10.0 mi North - - N/A   Scattered Clouds
11:15 AM 77.0 °F - 69.8 °F 78% 29.98 in 10.0 mi North - - N/A   Clear
11:35 AM 77.0 °F - 68.0 °F 74% 29.98 in 10.0 mi North - - N/A   Clear
11:55 AM 78.8 °F - 64.4 °F 61% 29.97 in 10.0 mi North - - N/A   Clear
12:15 PM 78.8 °F - 62.6 °F 57% 29.97 in 10.0 mi North - - N/A   Clear
12:35 PM 80.6 °F 81.8 °F 62.6 °F 54% 29.98 in 10.0 mi North - - N/A   Clear
12:55 PM 80.6 °F 81.8 °F 62.6 °F 54% 29.97 in 10.0 mi North - - N/A   Clear
1:15 PM 80.6 °F 81.8 °F 62.6 °F 54% 29.97 in 10.0 mi North - - N/A   Scattered Clouds
1:35 PM 80.6 °F 81.8 °F 62.6 °F 54% 29.96 in 10.0 mi North - - N/A   Mostly Cloudy
1:55 PM 82.4 °F 82.9 °F 60.8 °F 48% 29.96 in 10.0 mi North - - N/A   Scattered Clouds
2:15 PM 82.4 °F 83.4 °F 62.6 °F 51% 29.95 in 10.0 mi North - - N/A   Clear
2:35 PM 82.4 °F 83.4 °F 62.6 °F 51% 29.94 in 10.0 mi North - - N/A   Clear
2:55 PM 82.4 °F 83.4 °F 62.6 °F 51% 29.93 in 10.0 mi North - - N/A   Clear
3:15 PM 84.2 °F 85.0 °F 62.6 °F 48% 29.92 in 10.0 mi North - - N/A   Clear
3:35 PM 82.4 °F 82.9 °F 60.8 °F 48% 29.92 in 10.0 mi North - - N/A   Scattered Clouds
3:55 PM 82.4 °F 82.9 °F 60.8 °F 48% 29.91 in 10.0 mi North - - N/A   Scattered Clouds
4:15 PM 80.6 °F 81.5 °F 60.8 °F 51% 29.91 in 10.0 mi North - - N/A   Clear
4:35 PM 80.6 °F 81.8 °F 62.6 °F 54% 29.90 in 10.0 mi North - - N/A   Mostly Cloudy
4:55 PM 80.6 °F 81.8 °F 62.6 °F 54% 29.90 in 10.0 mi North - - N/A   Scattered Clouds
5:15 PM 82.4 °F 83.4 °F 62.6 °F 51% 29.89 in 10.0 mi North - - N/A   Clear
5:35 PM 80.6 °F 81.8 °F 62.6 °F 54% 29.89 in 10.0 mi North - - N/A   Clear
5:55 PM 80.6 °F 81.8 °F 62.6 °F 54% 29.89 in 10.0 mi North - - N/A   Clear
6:15 PM 78.8 °F - 64.4 °F 61% 29.89 in 10.0 mi North - - N/A   Scattered Clouds
6:35 PM 78.8 °F - 64.4 °F 61% 29.89 in 10.0 mi North - - N/A   Mostly Cloudy
6:55 PM 78.8 °F - 64.4 °F 61% 29.89 in 10.0 mi North - - N/A   Mostly Cloudy
7:15 PM 78.8 °F - 64.4 °F 61% 29.89 in 10.0 mi North - - N/A   Mostly Cloudy
7:35 PM 78.8 °F - 64.4 °F 61% 29.90 in 10.0 mi North - - N/A   Scattered Clouds
7:55 PM 78.8 °F - 64.4 °F 61% 29.89 in 10.0 mi North - - N/A   Clear
8:15 PM 78.8 °F - 66.2 °F 65% 29.90 in 10.0 mi North - - N/A   Clear
8:35 PM 77.0 °F - 68.0 °F 74% 29.90 in 10.0 mi North - - N/A   Clear
8:55 PM 77.0 °F - 71.6 °F 83% 29.90 in 10.0 mi North - - N/A   Clear
9:15 PM 77.0 °F - 71.6 °F 83% 29.91 in 10.0 mi North - - N/A   Clear
9:35 PM 77.0 °F - 71.6 °F 83% 29.91 in 10.0 mi North - - N/A   Clear
9:55 PM 75.2 °F - 71.6 °F 89% 29.91 in 10.0 mi North - - N/A   Clear
10:15 PM 75.2 °F - 69.8 °F 83% 29.93 in 10.0 mi North - - N/A   Clear
10:35 PM 73.4 °F - 71.6 °F 94% 29.92 in 10.0 mi North - - N/A   Clear
10:55 PM 73.4 °F - 71.6 °F 94% 29.93 in 10.0 mi North - - N/A   Clear
11:15 PM 73.4 °F - 71.6 °F 94% 29.92 in 10.0 mi North - - N/A   Clear
11:35 PM 71.6 °F - 71.6 °F 100% 29.92 in 7.0 mi North - - N/A   Clear
11:55 PM 73.4 °F - 71.6 °F 94% 29.92 in 10.0 mi North - - N/A   Clear